Weather History for Paris, TX

Change the Weather History Date:

Sunday, October 7, 2012

  Actual Average Record
Temperature  
Mean Temperature 50 °F -  
Max Temperature 57 °F 75 °F 89 °F (2011)
Min Temperature 44 °F 55 °F 42 °F (2001)
Degree Days  
Heating Degree Days 14    
Growing Degree Days 0 (Base 50)    
Moisture  
Dew Point 37 °F    
Average Humidity 60    
Maximum Humidity 81    
Minimum Humidity 44    
Precipitation  
Precipitation 0.00 in - - ()
Sea Level Pressure  
Sea Level Pressure 30.26 in    
Wind  
Wind Speed 8 mph (North)    
Max Wind Speed 13 mph    
Max Gust Speed 17 mph    
Visibility 10 miles    
Events      
Averages and records for this station are not official NWS values.
T = Trace of Precipitation, MM = Missing Value Source: NWS Daily Summary

Daily Weather History Graph

Daily Weather History Graph

Search for Another Location

Airport:

Trip Planner

Search our weather history database for the weather conditions in past years. The results will help you decide how hot, cold, wet, or windy it might be!

Date:

Astronomy

Oct. 07, 2012 Rise Set
Actual Time 7:20 AM CDT 6:57 PM CDT
Civil Twilight 6:55 AM CDT 7:22 PM CDT
Nautical Twilight 6:27 AM CDT 7:51 PM CDT
Astronomical Twilight 5:58 AM CDT 8:20 PM CDT
Moon No Moon Rise 1:47 PM CDT (10/7)
Length of Visible Light 12h 26m
Length of Day
11h 36m
Waning Gibbous, 56% of the Moon is Illuminated
Oct 7
Waning Gibbous
Oct 8
Last Quarter
Oct 15
New
Oct 21
First Quarter
Oct 29
Full

Hourly Weather History & Observations

Time (CDT) Temp. Windchill Dew Point Humidity Pressure Visibility Wind Dir Wind Speed Gust Speed Precip Events Conditions
12:15 AM 46.4 °F 41.1 °F 37.4 °F 71% 30.28 in 10.0 mi NE 11.5 mph - N/A   Overcast
12:35 AM 46.4 °F 41.9 °F 37.4 °F 71% 30.28 in 10.0 mi NNE 9.2 mph - N/A   Overcast
12:55 AM 46.4 °F 41.5 °F 37.4 °F 71% 30.29 in 10.0 mi NNE 10.4 mph - N/A   Overcast
1:15 AM 46.4 °F 42.4 °F 39.2 °F 76% 30.29 in 10.0 mi NNE 8.1 mph - N/A   Overcast
1:35 AM 46.4 °F 42.9 °F 39.2 °F 76% 30.29 in 10.0 mi NNE 6.9 mph - N/A   Overcast
2:15 AM 46.4 °F 42.9 °F 39.2 °F 76% 30.29 in 10.0 mi North 6.9 mph - N/A   Overcast
2:35 AM 46.4 °F 43.5 °F 39.2 °F 76% 30.28 in 10.0 mi North 5.8 mph - N/A   Overcast
2:55 AM 46.4 °F 43.5 °F 39.2 °F 76% 30.28 in 10.0 mi North 5.8 mph - N/A   Overcast
3:15 AM 46.4 °F 42.9 °F 41.0 °F 81% 30.28 in 10.0 mi North 6.9 mph - N/A   Overcast
3:35 AM 46.4 °F 41.9 °F 41.0 °F 81% 30.27 in 10.0 mi NNE 9.2 mph - N/A   Overcast
3:55 AM 46.4 °F 42.4 °F 41.0 °F 81% 30.28 in 10.0 mi North 8.1 mph - N/A   Overcast
4:15 AM 46.4 °F 41.5 °F 39.2 °F 76% 30.28 in 10.0 mi North 10.4 mph - N/A   Overcast
4:35 AM 46.4 °F 41.5 °F 39.2 °F 76% 30.28 in 10.0 mi North 10.4 mph - N/A   Mostly Cloudy
4:55 AM 46.4 °F 41.5 °F 39.2 °F 76% 30.28 in 10.0 mi North 10.4 mph - N/A   Overcast
5:15 AM 46.4 °F 40.7 °F 39.2 °F 76% 30.28 in 10.0 mi North 12.7 mph - N/A   Overcast
5:35 AM 46.4 °F 41.5 °F 37.4 °F 71% 30.28 in 10.0 mi North 10.4 mph - N/A   Overcast
5:55 AM 46.4 °F 42.4 °F 39.2 °F 76% 30.28 in 10.0 mi NNE 8.1 mph - N/A   Overcast
6:15 AM 46.4 °F 41.5 °F 37.4 °F 71% 30.28 in 10.0 mi North 10.4 mph - N/A   Overcast
6:35 AM 46.4 °F 41.5 °F 37.4 °F 71% 30.28 in 10.0 mi North 10.4 mph - N/A   Overcast
6:55 AM 46.4 °F 41.5 °F 37.4 °F 71% 30.29 in 10.0 mi North 10.4 mph - N/A   Overcast
7:15 AM 46.4 °F 40.7 °F 35.6 °F 66% 30.30 in 10.0 mi North 12.7 mph 17.3 mph N/A   Overcast
7:35 AM 44.6 °F 38.8 °F 33.8 °F 66% 30.30 in 10.0 mi North 11.5 mph - N/A   Scattered Clouds
7:55 AM 44.6 °F 38.8 °F 33.8 °F 66% 30.31 in 10.0 mi North 11.5 mph - N/A   Clear
8:15 AM 44.6 °F 39.7 °F 33.8 °F 66% 30.30 in 10.0 mi North 9.2 mph - N/A   Clear
8:55 AM 46.4 °F 42.4 °F 33.8 °F 62% 30.31 in 10.0 mi NNE 8.1 mph - N/A   Clear
9:15 AM 48.2 °F - 33.8 °F 58% 30.31 in 10.0 mi NE 9.2 mph - N/A   Clear
9:55 AM 51.8 °F - 33.8 °F 50% 30.31 in 10.0 mi NE 11.5 mph - N/A   Clear
10:15 AM 51.8 °F - 35.6 °F 54% 30.30 in 10.0 mi ENE 5.8 mph - N/A   Clear
10:35 AM 51.8 °F - 35.6 °F 54% 30.31 in 10.0 mi ENE 6.9 mph 16.1 mph N/A   Clear
10:55 AM 53.6 °F - 35.6 °F 51% 30.30 in 10.0 mi ENE 9.2 mph - N/A   Scattered Clouds
11:15 AM 53.6 °F - 35.6 °F 51% 30.31 in 10.0 mi North 3.5 mph - N/A   Mostly Cloudy
11:35 AM 53.6 °F - 33.8 °F 47% 30.31 in 10.0 mi ENE 5.8 mph - N/A   Scattered Clouds
11:55 AM 55.4 °F - 35.6 °F 47% 30.31 in 10.0 mi NE 6.9 mph - N/A   Partly Cloudy
12:15 PM 55.4 °F - 35.6 °F 47% 30.30 in 10.0 mi Calm Calm - N/A   Partly Cloudy
12:35 PM 55.4 °F - 33.8 °F 44% 30.28 in 10.0 mi Calm Calm - N/A   Scattered Clouds
12:55 PM 55.4 °F - 33.8 °F 44% 30.28 in 10.0 mi ENE 5.8 mph - N/A   Mostly Cloudy
1:15 PM 57.2 °F - 35.6 °F 44% 30.27 in 10.0 mi Calm Calm - N/A   Mostly Cloudy
1:35 PM 57.2 °F - 35.6 °F 44% 30.25 in 10.0 mi East 8.1 mph - N/A   Mostly Cloudy
1:55 PM 57.2 °F - 35.6 °F 44% 30.25 in 10.0 mi NNW 4.6 mph - N/A   Mostly Cloudy
2:15 PM 55.4 °F - 35.6 °F 47% 30.23 in 10.0 mi Calm Calm - N/A   Overcast
2:35 PM 55.4 °F - 35.6 °F 47% 30.22 in 10.0 mi North 9.2 mph - N/A   Overcast
2:55 PM 55.4 °F - 35.6 °F 47% 30.22 in 10.0 mi NW 6.9 mph - N/A   Overcast
3:15 PM 55.4 °F - 35.6 °F 47% 30.22 in 10.0 mi North 6.9 mph - N/A   Overcast
3:35 PM 55.4 °F - 35.6 °F 47% 30.22 in 10.0 mi North 8.1 mph - N/A   Overcast
3:55 PM 55.4 °F - 35.6 °F 47% 30.22 in 10.0 mi North 10.4 mph - N/A   Overcast
4:15 PM 53.6 °F - 35.6 °F 51% 30.22 in 10.0 mi North 10.4 mph - N/A   Overcast
4:35 PM 53.6 °F - 35.6 °F 51% 30.22 in 10.0 mi North 11.5 mph - N/A   Overcast
4:55 PM 53.6 °F - 35.6 °F 51% 30.21 in 10.0 mi North 10.4 mph - N/A   Overcast
5:15 PM 53.6 °F - 35.6 °F 51% 30.20 in 10.0 mi North 8.1 mph - N/A   Overcast
5:35 PM 53.6 °F - 35.6 °F 51% 30.20 in 10.0 mi North 6.9 mph - N/A   Overcast
5:55 PM 53.6 °F - 35.6 °F 51% 30.21 in 10.0 mi North 6.9 mph - N/A   Overcast
6:15 PM 53.6 °F - 35.6 °F 51% 30.21 in 10.0 mi NNW 5.8 mph - N/A   Overcast
6:35 PM 53.6 °F - 37.4 °F 54% 30.21 in 10.0 mi North 8.1 mph - N/A   Overcast
6:55 PM 53.6 °F - 37.4 °F 54% 30.21 in 10.0 mi North 8.1 mph - N/A   Overcast
7:15 PM 51.8 °F - 37.4 °F 58% 30.21 in 10.0 mi North 8.1 mph - N/A   Overcast
7:55 PM 51.8 °F - 37.4 °F 58% 30.22 in 10.0 mi North 4.6 mph - N/A   Overcast
8:15 PM 51.8 °F - 35.6 °F 54% 30.23 in 10.0 mi North 3.5 mph - N/A   Overcast
8:35 PM 51.8 °F - 37.4 °F 58% 30.23 in 10.0 mi NNW 3.5 mph - N/A   Overcast
8:55 PM 51.8 °F - 37.4 °F 58% 30.24 in 10.0 mi Calm Calm - N/A   Overcast
9:15 PM 51.8 °F - 37.4 °F 58% 30.23 in 10.0 mi Calm Calm - N/A   Overcast
9:35 PM 51.8 °F - 35.6 °F 54% 30.24 in 10.0 mi Calm Calm - N/A   Overcast
9:55 PM 51.8 °F - 39.2 °F 62% 30.24 in 10.0 mi West 3.5 mph - N/A   Overcast
10:15 PM 51.8 °F - 39.2 °F 62% 30.25 in 10.0 mi WNW 5.8 mph - N/A   Overcast
10:35 PM 51.8 °F - 37.4 °F 58% 30.24 in 10.0 mi Calm Calm - N/A   Overcast
10:55 PM 51.8 °F - 35.6 °F 54% 30.25 in 10.0 mi West 3.5 mph - N/A   Overcast
11:15 PM 51.8 °F - 37.4 °F 58% 30.25 in 10.0 mi SW 3.5 mph - N/A   Overcast
11:35 PM 51.8 °F - 37.4 °F 58% 30.24 in 10.0 mi WSW 3.5 mph - N/A   Overcast
11:55 PM 51.8 °F - 37.4 °F 58% 30.24 in 10.0 mi WNW 3.5 mph - N/A   Overcast